When you browse on this site, cookies collect data to enhance your experience and personalize the content and advertising you see.
Visit our Privacy Policy to learn more. By continuing to use the site, you agree to this use of cookies and data.
  • En España
  • Lista de países
  • Para 7 días
  • Temperatura del agua
  • Mapa Satelital
  • El tiempo en el mapa
  • Informadores
  • user-avatar
    Iniciar sesión

    Tiempo cada hora Idzhewan

    Hoy, 23 Enero, Miércoles

    Tiempo Temperatura Precipitaciones Viento Presión Humedad
    00:00 -1°C° 0 mm 3 mps 694 mmHg 60%
    01:00 -1°C° 0 mm 3 mps 694 mmHg 61%
    02:00 -1°C° 0 mm 3 mps 694 mmHg 61%
    03:00 -1°C° 0 mm 3 mps 694 mmHg 62%
    04:00 -1°C° 0 mm 2 mps 694 mmHg 62%
    05:00 -1°C° 0 mm 2 mps 694 mmHg 62%
    06:00 -1°C° 0 mm 2 mps 694 mmHg 63%
    07:00 -1°C° 0 mm 2 mps 694 mmHg 62%
    08:00 +1°C° 0 mm 2 mps 694 mmHg 62%
    09:00 +2°C° 0 mm 2 mps 695 mmHg 61%
    10:00 +4°C° 0 mm 1 mps 695 mmHg 60%
    11:00 +5°C° 0 mm 1 mps 695 mmHg 58%
    12:00 +6°C° 0 mm 1 mps 695 mmHg 56%
    13:00 +6°C° 0 mm 1 mps 694 mmHg 57%
    14:00 +6°C° 0 mm 1 mps 694 mmHg 58%
    15:00 +6°C° 0 mm 1 mps 694 mmHg 59%
    16:00 +5°C° 0 mm 1 mps 694 mmHg 64%
    17:00 +4°C° 0 mm 1 mps 695 mmHg 68%
    18:00 +2°C° 0 mm 1 mps 695 mmHg 73%
    19:00 +2°C° 0 mm 1 mps 695 mmHg 72%
    20:00 +2°C° 0 mm 1 mps 695 mmHg 70%
    21:00 +1°C° 0 mm 1 mps 695 mmHg 69%
    22:00 +1°C° 0 mm 1 mps 695 mmHg 69%
    23:00 +1°C° 0 mm 1 mps 696 mmHg 69%

    Mañana, 24 Enero, Jueves

    Tiempo Temperatura Precipitaciones Viento Presión Humedad
    00:00 +1°C° 0 mm 1 mps 696 mmHg 68%
    01:00 +1°C° 0 mm 1 mps 696 mmHg 69%
    02:00 +1°C° 0 mm 1 mps 696 mmHg 69%
    03:00 -2°C° 0 mm 2 mps 695 mmHg 69%
    04:00 -2°C° 0 mm 2 mps 695 mmHg 69%
    05:00 -2°C° 0 mm 2 mps 695 mmHg 68%
    06:00 -2°C° 0 mm 2 mps 695 mmHg 68%
    07:00 -1°C° 0 mm 2 mps 695 mmHg 66%
    08:00 +1°C° 0 mm 2 mps 695 mmHg 64%
    09:00 +2°C° 0 mm 2 mps 696 mmHg 62%
    10:00 +3°C° 0 mm 2 mps 695 mmHg 60%
    11:00 +6°C° 0 mm 1 mps 695 mmHg 57%
    12:00 +7°C° 0 mm 1 mps 694 mmHg 54%
    13:00 +7°C° 0 mm 1 mps 694 mmHg 54%
    14:00 +7°C° 0 mm 1 mps 694 mmHg 54%
    15:00 +8°C° 0 mm 1 mps 693 mmHg 55%
    16:00 +6°C° 0 mm 1 mps 694 mmHg 58%
    17:00 +4°C° 0 mm 2 mps 694 mmHg 62%
    18:00 +3°C° 0 mm 2 mps 694 mmHg 66%
    19:00 +3°C° 0 mm 2 mps 694 mmHg 66%
    20:00 +3°C° 0 mm 2 mps 694 mmHg 65%
    21:00 +3°C° 0 mm 2 mps 694 mmHg 65%
    22:00 +3°C° 0 mm 2 mps 694 mmHg 65%
    23:00 +3°C° 0 mm 2 mps 694 mmHg 65%

    Pasado mañana, 25 Enero, Viernes

    Tiempo Temperatura Precipitaciones Viento Presión Humedad
    00:00 +3°C° 0 mm 2 mps 693 mmHg 64%
    01:00 +2°C° 0 mm 2 mps 693 mmHg 64%
    02:00 +1°C° 0 mm 3 mps 693 mmHg 64%
    03:00 +1°C° 0 mm 3 mps 693 mmHg 64%
    04:00 +1°C° 0 mm 3 mps 693 mmHg 63%
    05:00 +2°C° 0 mm 3 mps 692 mmHg 63%
    06:00 +3°C° 0 mm 2 mps 692 mmHg 63%
    07:00 +2°C° 0 mm 3 mps 692 mmHg 63%
    08:00 +3°C° 0 mm 3 mps 692 mmHg 64%
    09:00 +3°C° 0 mm 3 mps 692 mmHg 65%
    10:00 +4°C° 0 mm 3 mps 692 mmHg 63%
    11:00 +6°C° 0 mm 2 mps 692 mmHg 61%
    12:00 +7°C° 0 mm 2 mps 692 mmHg 59%
    13:00 +8°C° 0 mm 2 mps 691 mmHg 58%
    14:00 +8°C° 0 mm 2 mps 691 mmHg 57%
    15:00 +9°C° 0 mm 2 mps 691 mmHg 57%
    16:00 +7°C° 0 mm 2 mps 691 mmHg 61%
    17:00 +6°C° 0 mm 2 mps 691 mmHg 64%
    18:00 +4°C° 0 mm 2 mps 691 mmHg 68%
    19:00 +3°C° 0 mm 3 mps 692 mmHg 67%
    20:00 +3°C° 0 mm 3 mps 692 mmHg 67%
    21:00 +3°C° 0 mm 3 mps 692 mmHg 66%
    22:00 +3°C° 0 mm 3 mps 692 mmHg 66%
    23:00 +2°C° 0 mm 3 mps 692 mmHg 65%

    26 Enero, Sábado

    Tiempo Temperatura Precipitaciones Viento Presión Humedad
    00:00 +2°C° 0 mm 3 mps 692 mmHg 65%
    01:00 +2°C° 0 mm 3 mps 691 mmHg 65%
    02:00 +2°C° 0 mm 3 mps 691 mmHg 65%
    03:00 +2°C° 0 mm 3 mps 691 mmHg 65%
    04:00 +2°C° 0 mm 3 mps 691 mmHg 64%
    05:00 +2°C° 0 mm 3 mps 691 mmHg 64%
    06:00 +2°C° 0 mm 3 mps 691 mmHg 64%
    07:00 +3°C° 0 mm 3 mps 691 mmHg 62%
    08:00 +3°C° 0 mm 3 mps 691 mmHg 60%
    09:00 +4°C° 0 mm 3 mps 692 mmHg 58%
    10:00 +6°C° 0 mm 2 mps 691 mmHg 55%
    11:00 +8°C° 0 mm 2 mps 691 mmHg 52%
    12:00 +9°C° 0 mm 2 mps 691 mmHg 49%
    13:00 +10°C° 0 mm 2 mps 690 mmHg 50%
    14:00 +10°C° 0 mm 2 mps 690 mmHg 52%
    15:00 +11°C° 0 mm 1 mps 689 mmHg 53%
    16:00 +9°C° 0 mm 1 mps 689 mmHg 57%
    17:00 +7°C° 0 mm 2 mps 689 mmHg 61%
    18:00 +6°C° 0 mm 2 mps 689 mmHg 65%
    19:00 +5°C° 0 mm 2 mps 689 mmHg 66%
    20:00 +5°C° 0 mm 2 mps 689 mmHg 66%
    21:00 +4°C° 0 mm 3 mps 689 mmHg 67%
    22:00 +5°C° 0 mm 2 mps 689 mmHg 68%
    23:00 +5°C° 0 mm 2 mps 689 mmHg 70%

    27 Enero, Domingo

    Tiempo Temperatura Precipitaciones Viento Presión Humedad
    00:00 +5°C° 0 mm 2 mps 688 mmHg 71%
    01:00 +5°C° 0 mm 2 mps 688 mmHg 72%
    02:00 +5°C° 0 mm 2 mps 688 mmHg 73%
    03:00 +5°C° 0 mm 2 mps 688 mmHg 74%
    04:00 +5°C° 0 mm 2 mps 688 mmHg 74%
    05:00 +5°C° 0 mm 2 mps 688 mmHg 75%
    06:00 +5°C° 0 mm 2 mps 687 mmHg 75%
    07:00 +6°C° 0 mm 1 mps 688 mmHg 73%
    08:00 +7°C° 0 mm 1 mps 688 mmHg 72%
    09:00 +8°C° 0 mm 1 mps 688 mmHg 70%
    10:00 +9°C° 0 mm 1 mps 688 mmHg 67%
    11:00 +10°C° 0 mm 1 mps 688 mmHg 64%
    12:00 +11°C° 0 mm 1 mps 687 mmHg 62%
    13:00 +11°C° 0 mm 1 mps 687 mmHg 61%
    14:00 +11°C° 0 mm 1 mps 687 mmHg 60%
    15:00 +12°C° 0 mm 1 mps 687 mmHg 59%
    16:00 +10°C° 0 mm 1 mps 687 mmHg 63%
    17:00 +9°C° 0 mm 1 mps 688 mmHg 68%
    18:00 +7°C° 0 mm 1 mps 688 mmHg 72%
    19:00 +7°C° 0 mm 1 mps 688 mmHg 71%
    20:00 +6°C° 0 mm 2 mps 688 mmHg 70%
    21:00 +6°C° 0 mm 2 mps 688 mmHg 69%
    22:00 +6°C° 0 mm 2 mps 688 mmHg 69%
    23:00 +5°C° 0 mm 2 mps 688 mmHg 69%

    28 Enero, Lunes

    Tiempo Temperatura Precipitaciones Viento Presión Humedad
    00:00 +5°C° 0 mm 2 mps 688 mmHg 68%
    01:00 +5°C° 0 mm 2 mps 688 mmHg 69%
    02:00 +5°C° 0 mm 2 mps 688 mmHg 70%
    03:00 +5°C° 0 mm 2 mps 688 mmHg 71%
    04:00 +4°C° 0 mm 2 mps 688 mmHg 71%
    05:00 +4°C° 0 mm 2 mps 688 mmHg 71%
    06:00 +4°C° 0 mm 2 mps 687 mmHg 71%
    07:00 +5°C° 0 mm 2 mps 687 mmHg 68%
    08:00 +6°C° 0 mm 1 mps 687 mmHg 65%
    09:00 +7°C° 0 mm 1 mps 687 mmHg 63%
    10:00 +7°C° 0.2 mm 1 mps 687 mmHg 64%
    11:00 +8°C° 0.2 mm 1 mps 687 mmHg 65%
    12:00 +8°C° 0.2 mm 1 mps 687 mmHg 66%
    13:00 +8°C° 0.7 mm 1 mps 687 mmHg 71%
    14:00 +8°C° 0.7 mm 1 mps 686 mmHg 76%
    15:00 +7°C° 0.7 mm 1 mps 686 mmHg 81%
    16:00 +7°C° 0.3 mm 1 mps 687 mmHg 82%
    17:00 +6°C° 0.3 mm 1 mps 687 mmHg 82%
    18:00 +5°C° 0.3 mm 2 mps 688 mmHg 83%
    19:00 +5°C° 0.1 mm 2 mps 689 mmHg 82%
    20:00 +5°C° 0.1 mm 2 mps 689 mmHg 81%
    21:00 +5°C° 0.1 mm 2 mps 690 mmHg 79%
    22:00 +4°C° 0 mm 3 mps 691 mmHg 78%
    23:00 +3°C° 0 mm 3 mps 691 mmHg 76%
    Mostrar más